MDT,Max TemperatureF,Mean TemperatureF,Min TemperatureF,Max Dew PointF,MeanDew PointF,Min DewpointF,Max Humidity, Mean Humidity, Min Humidity, Max Sea Level PressureIn, Mean Sea Level PressureIn, Min Sea Level PressureIn, Max VisibilityMiles, Mean VisibilityMiles, Min VisibilityMiles, Max Wind SpeedMPH, Mean Wind SpeedMPH, Max Gust SpeedMPH,PrecipitationIn, CloudCover, Events, WindDirDegrees
2011-10-1,87,66,44,44,40,35,65,42,18,29.95,29.91,29.87,10,10,10,17,9,21,0.00,0,,148
2011-10-2,95,74,52,46,38,34,72,42,11,29.88,29.84,29.79,10,10,10,26,11,35,0.00,0,,187
2011-10-3,79,64,48,50,48,46,83,59,35,30.00,29.95,29.87,10,10,7,15,8,18,0.00,0,,30
2011-10-4,88,65,42,51,46,44,100,61,22,29.94,29.79,29.59,10,9,5,25,11,32,0.00,0,,111
2011-10-5,85,71,57,45,42,35,62,43,23,29.57,29.52,29.48,10,10,10,36,20,48,0.00,0,,157
2011-10-6,71,63,54,56,51,39,93,65,37,29.50,29.45,29.36,10,10,5,29,17,36,0.10,5,Rain,141
2011-10-7,57,50,43,55,48,39,100,82,63,29.77,29.42,29.25,10,9,3,44,18,54,0.02,7,Rain,210
2011-10-8,54,47,39,47,43,37,93,76,59,30.27,30.01,29.77,10,10,9,28,11,35,T,6,Rain,304
2011-10-9,52,43,33,45,40,31,100,82,63,30.30,30.13,29.94,10,8,1,14,5,16,0.01,7,Rain,96
2011-10-10,64,51,38,47,42,35,100,68,36,29.89,29.79,29.67,10,7,1,20,8,26,0.13,5,Rain,198
2011-10-11,69,54,38,46,39,34,85,59,32,29.70,29.65,29.60,10,7,2,17,7,21,0.01,2,Rain,255
2011-10-12,64,52,39,43,37,33,92,64,36,29.90,29.82,29.70,10,9,7,28,15,33,0.00,0,,279
2011-10-13,58,46,34,36,33,31,85,61,36,29.95,29.88,29.84,10,10,10,32,16,44,T,1,,285
2011-10-14,54,43,32,31,28,24,82,57,32,30.07,30.01,29.95,10,10,10,28,13,35,0.00,1,,287
2011-10-15,49,42,34,39,33,26,100,73,46,30.02,29.95,29.90,10,10,8,13,5,16,0.02,7,Rain,280
2011-10-16,52,41,29,33,28,24,100,68,35,30.16,30.09,30.04,10,10,10,21,10,25,0.00,0,,285
2011-10-17,56,42,28,28,24,20,85,55,24,30.21,30.13,30.05,10,10,10,29,13,36,0.00,0,,298
2011-10-18,56,41,26,30,26,22,81,57,32,30.28,30.25,30.21,10,10,10,24,10,29,0.00,4,,300
2011-10-19,54,39,24,29,25,19,92,65,38,30.25,30.16,30.04,10,10,10,16,9,20,0.00,0,,145
2011-10-20,65,45,25,35,28,18,75,53,30,30.03,29.94,29.87,10,10,10,22,11,25,0.00,0,,222
2011-10-21,62,49,35,37,35,32,85,62,39,30.13,30.05,29.95,10,10,10,15,8,20,0.00,0,,291
2011-10-22,66,51,35,41,35,29,92,61,30,30.07,29.96,29.86,10,8,1,26,12,33,T,3,,249
2011-10-23,65,49,32,41,34,25,92,60,27,30.04,29.91,29.84,10,10,9,29,11,36,T,2,Rain,281
2011-10-24,47,38,29,36,31,24,85,72,58,30.05,30.02,29.97,10,10,10,16,7,18,T,6,,57
2011-10-25,49,37,25,39,35,25,100,77,54,30.26,30.11,29.99,10,10,7,26,12,33,0.01,6,Rain,284
2011-10-26,48,34,20,31,23,17,100,67,34,30.29,30.22,30.12,10,10,10,21,10,26,0.00,1,,278
2011-10-27,51,37,23,28,23,19,88,61,33,30.13,30.05,29.97,10,10,10,25,12,31,0.00,1,,259
2011-10-28,51,37,23,23,16,8,81,50,18,30.24,30.14,29.94,10,10,10,16,9,21,0.00,0,,262
2011-10-29,59,46,33,37,28,14,86,58,30,29.96,29.83,29.72,10,10,5,36,14,45,0.01,4,Rain,268
2011-10-30,51,38,24,27,22,18,81,55,28,30.08,30.01,29.92,10,10,10,24,12,29,0.00,0,,258
2011-10-31,67,50,32,40,30,21,73,52,31,29.91,29.80,29.69,10,10,10,25,13,32,T,3,Rain,264